Weather History for Quincy Muni, Quincy, FL, FL

Change the Weather History Date:

Thursday, August 21, 2014

  Actual Average (KTLH) Record (KTLH)
Temperature  
Mean Temperature 86 °F 82 °F  
Max Temperature 102 °F 91 °F 99 °F (1968)
Min Temperature 71 °F 72 °F 60 °F (1991)
Degree Days  
Heating Degree Days 0    
Month to date heating degree days  
Since 1 June heating degree days  
Since 1 July heating degree days  
Cooling Degree Days 22    
Month to date cooling degree days  
Year to date cooling degree days  
Since 1 June cooling degree days  
Growing Degree Days 36 (Base 50)    
Moisture  
Dew Point 73 °F    
Average Humidity 75    
Maximum Humidity 100    
Minimum Humidity 35    
Precipitation  
Precipitation 0.00 in 0.23 in 1.60 in (1979)
Month to date precipitation 5.30  
Year to date precipitation 41.86  
Sea Level Pressure  
Sea Level Pressure 30.12 in    
Wind  
Wind Speed 1 mph (WNW)    
Max Wind Speed 9 mph    
Max Gust Speed -    
Visibility 9 miles    
Events      
T = Trace of Precipitation, MM = Missing Value Source: NWS Daily Summary

Daily Weather History Graph

Daily Weather History Graph

Search for Another Location

Airport:

Trip Planner

Search our weather history database for the weather conditions in past years. The results will help you decide how hot, cold, wet, or windy it might be!

Date:

Astronomy

Aug. 21, 2014 Rise Set
Actual Time 7:08 AM EDT 8:13 PM EDT
Civil Twilight 6:43 AM EDT 8:38 PM EDT
Nautical Twilight 6:13 AM EDT 9:08 PM EDT
Astronomical Twilight 5:43 AM EDT 9:38 PM EDT
Moon 3:44 AM EDT (8/21) 5:36 PM EDT (8/21)
Length of Visible Light 13h 55m
Length of Day
13h 05m
Waning Crescent, 13% of the Moon is Illuminated
Aug 21
Waning Crescent
Aug 25
New
Sep 2
First Quarter
Sep 8
Full
Sep 15
Last Quarter

Hourly Weather History & Observations

Time (EDT) Temp. Heat Index Dew Point Humidity Pressure Visibility Wind Dir Wind Speed Gust Speed Precip Events Conditions
12:15 AM 75.2 °F - 73.4 °F 94% 30.13 in 9.0 mi Calm Calm - N/A   Partly Cloudy
12:35 AM 75.2 °F - 73.4 °F 94% 30.13 in 9.0 mi Calm Calm - N/A   Partly Cloudy
12:55 AM 75.2 °F - 73.4 °F 94% 30.13 in 9.0 mi Calm Calm - N/A   Scattered Clouds
1:15 AM 75.2 °F - 73.4 °F 94% 30.13 in 9.0 mi Calm Calm - N/A   Scattered Clouds
1:55 AM 73.4 °F - 73.4 °F 100% 30.12 in 8.0 mi Calm Calm - N/A   Mostly Cloudy
2:15 AM 73.4 °F - 73.4 °F 100% 30.11 in 9.0 mi Calm Calm - N/A   Overcast
2:35 AM 73.4 °F - 73.4 °F 100% 30.10 in 8.0 mi Calm Calm - N/A   Overcast
2:55 AM 73.4 °F - 73.4 °F 100% 30.10 in 7.0 mi Calm Calm - N/A   Scattered Clouds
3:15 AM 73.4 °F - 73.4 °F 100% 30.10 in 7.0 mi Calm Calm - N/A   Scattered Clouds
3:35 AM 73.4 °F - 73.4 °F 100% 30.10 in 7.0 mi Calm Calm - N/A   Scattered Clouds
3:55 AM 73.4 °F - 73.4 °F 100% 30.09 in 7.0 mi Calm Calm - N/A   Partly Cloudy
4:15 AM 73.4 °F - 73.4 °F 100% 30.09 in 6.0 mi Calm Calm - N/A   Scattered Clouds
4:35 AM 73.4 °F - 73.4 °F 100% 30.08 in 7.0 mi Calm Calm - N/A   Partly Cloudy
4:55 AM 73.4 °F - 73.4 °F 100% 30.09 in 7.0 mi Calm Calm - N/A   Partly Cloudy
5:15 AM 71.6 °F - 71.6 °F 100% 30.09 in 7.0 mi Calm Calm - N/A   Clear
5:35 AM 71.6 °F - 71.6 °F 100% 30.10 in 6.0 mi Calm Calm - N/A   Scattered Clouds
5:55 AM 71.6 °F - 71.6 °F 100% 30.11 in 5.0 mi Calm Calm - N/A   Scattered Clouds
6:15 AM 71.6 °F - 71.6 °F 100% 30.11 in 6.0 mi Calm Calm - N/A   Mostly Cloudy
6:35 AM 71.6 °F - 71.6 °F 100% 30.12 in 6.0 mi Calm Calm - N/A   Mostly Cloudy
6:55 AM 71.6 °F - 71.6 °F 100% 30.13 in 5.0 mi Calm Calm - N/A   Scattered Clouds
7:15 AM 73.4 °F - 73.4 °F 100% 30.14 in 5.0 mi Calm Calm - N/A   Clear
7:35 AM 73.4 °F - 73.4 °F 100% 30.15 in 5.0 mi Calm Calm - N/A   Clear
7:55 AM 77.0 °F - 77.0 °F 100% 30.15 in 5.0 mi Calm Calm - N/A   Clear
8:15 AM 78.8 °F - 77.0 °F 94% 30.16 in 7.0 mi Calm Calm - N/A   Clear
8:35 AM 82.4 °F 90.9 °F 77.0 °F 84% 30.16 in 7.0 mi Calm Calm - N/A   Clear
8:55 AM 84.2 °F 96.1 °F 78.8 °F 84% 30.17 in 9.0 mi Calm Calm - N/A   Clear
9:15 AM 86.0 °F 96.9 °F 77.0 °F 74% 30.17 in 9.0 mi Calm Calm - N/A   Clear
9:35 AM 87.8 °F 97.6 °F 75.2 °F 66% 30.17 in 9.0 mi Calm Calm - N/A   Clear
9:55 AM 89.6 °F 99.8 °F 75.2 °F 62% 30.17 in 9.0 mi Calm Calm - N/A   Clear
10:15 AM 91.4 °F 102.5 °F 75.2 °F 59% 30.17 in 9.0 mi Calm Calm - N/A   Clear
10:35 AM 91.4 °F 102.5 °F 75.2 °F 59% 30.17 in 9.0 mi Calm Calm - N/A   Clear
10:55 AM 93.2 °F 105.0 °F 75.2 °F 56% 30.16 in 9.0 mi Calm Calm - N/A   Clear
11:15 AM 93.2 °F 102.4 °F 73.4 °F 52% 30.16 in 10.0 mi WNW 4.6 mph - N/A   Clear
11:35 AM 93.2 °F 102.4 °F 73.4 °F 52% 30.16 in 9.0 mi Calm Calm - N/A   Clear
11:55 AM 95.0 °F 104.5 °F 73.4 °F 49% 30.16 in 10.0 mi Calm Calm - N/A   Clear
12:15 PM 95.0 °F 107.4 °F 75.2 °F 53% 30.15 in 9.0 mi Calm Calm - N/A   Clear
12:35 PM 96.8 °F 109.6 °F 75.2 °F 50% 30.14 in 10.0 mi Calm Calm - N/A   Partly Cloudy
12:55 PM 95.0 °F 107.4 °F 75.2 °F 53% 30.14 in 10.0 mi Calm Calm - N/A   Mostly Cloudy
1:15 PM 98.6 °F 109.2 °F 73.4 °F 44% 30.13 in 10.0 mi SW 5.8 mph - N/A   Partly Cloudy
1:55 PM 98.6 °F 109.2 °F 73.4 °F 44% 30.13 in 10.0 mi West 5.8 mph - N/A   Partly Cloudy
2:15 PM 102.2 °F 114.4 °F 73.4 °F 40% 30.12 in 10.0 mi Calm Calm - N/A   Clear
2:35 PM 102.2 °F 114.4 °F 73.4 °F 40% 30.12 in 10.0 mi Calm Calm - N/A   Clear
2:55 PM 102.2 °F 114.4 °F 73.4 °F 40% 30.11 in 10.0 mi WSW 6.9 mph - N/A   Clear
3:15 PM 102.2 °F 114.4 °F 73.4 °F 40% 30.10 in 10.0 mi WSW 9.2 mph - N/A   Clear
3:35 PM 102.2 °F 111.7 °F 71.6 °F 37% 30.09 in 10.0 mi West 4.6 mph - N/A   Clear
3:55 PM 102.2 °F 111.7 °F 71.6 °F 37% 30.07 in 10.0 mi WSW 8.1 mph - N/A   Clear
4:15 PM 102.2 °F 110.0 °F 69.8 °F 35% 30.07 in 10.0 mi West 8.1 mph - N/A   Clear
4:55 PM 93.2 °F 102.4 °F 73.4 °F 52% 30.08 in 10.0 mi Calm Calm - N/A   Partly Cloudy
5:15 PM 91.4 °F 100.1 °F 73.4 °F 55% 30.08 in 10.0 mi Calm Calm - N/A   Clear
5:55 PM 87.8 °F 97.6 °F 75.2 °F 66% 30.09 in 10.0 mi North 5.8 mph - N/A   Clear
6:35 PM 86.0 °F 91.8 °F 71.6 °F 62% 30.09 in 10.0 mi NNE 8.1 mph - N/A   Clear
6:55 PM 86.0 °F 90.4 °F 69.8 °F 58% 30.09 in 10.0 mi North 6.9 mph - N/A   Clear
7:15 PM 86.0 °F 90.4 °F 69.8 °F 58% 30.09 in 10.0 mi North 4.6 mph - N/A   Clear
7:35 PM 86.0 °F 90.4 °F 69.8 °F 58% 30.10 in 10.0 mi Calm Calm - N/A   Clear
7:55 PM 84.2 °F 88.4 °F 69.8 °F 62% 30.10 in 10.0 mi Calm Calm - N/A   Clear
8:15 PM 82.4 °F 87.2 °F 71.6 °F 70% 30.10 in 10.0 mi Calm Calm - N/A   Clear
8:35 PM 82.4 °F 87.2 °F 71.6 °F 70% 30.11 in 10.0 mi Calm Calm - N/A   Scattered Clouds
8:55 PM 80.6 °F 84.6 °F 71.6 °F 74% 30.11 in 10.0 mi Calm Calm - N/A   Mostly Cloudy
9:15 PM 80.6 °F 84.6 °F 71.6 °F 74% 30.12 in 10.0 mi Calm Calm - N/A   Overcast
9:55 PM 78.8 °F - 71.6 °F 78% 30.14 in 10.0 mi Calm Calm - N/A   Mostly Cloudy
10:15 PM 77.0 °F - 73.4 °F 89% 30.14 in 10.0 mi Calm Calm - N/A   Scattered Clouds
10:35 PM 77.0 °F - 73.4 °F 89% 30.14 in 10.0 mi Calm Calm - N/A   Partly Cloudy
10:55 PM 77.0 °F - 73.4 °F 89% 30.15 in 10.0 mi Calm Calm - N/A   Partly Cloudy
11:15 PM 77.0 °F - 73.4 °F 89% 30.14 in 10.0 mi Calm Calm - N/A   Mostly Cloudy
11:35 PM 77.0 °F - 73.4 °F 89% 30.14 in 10.0 mi Calm Calm - N/A   Mostly Cloudy
11:55 PM 77.0 °F - 73.4 °F 89% 30.14 in 10.0 mi Calm Calm - N/A   Mostly Cloudy